GW2123 Weather Reports


time (UTC)temp
C
wind
direction
speed
KPH
gust
KPH
rain 1hr
cm
rain 24hr
cm
rain mn
cm
humidity
%
barometer
mb
20260502210541 10 0 0.0 1.6 0.00 0.00 0.00 33 1014.6
20260502210053 10 0 0.0 4.8 0.00 0.00 0.00 34 1014.7
20260502205541 10 0 0.0 4.8 0.00 0.00 0.00 34 1014.7
20260502205042 10 0 0.0 4.8 0.00 0.00 0.00 34 1014.7
20260502204553 10 0 0.0 1.6 0.00 0.00 0.00 34 1014.7
20260502204041 10 0 0.0 4.8 0.00 0.00 0.00 34 1014.8
20260502203542 11 0 0.0 4.8 0.00 0.00 0.00 32 1014.9
20260502203052 10 0 0.0 4.8 0.00 0.00 0.00 34 1014.7
20260502202542 10 0 0.0 12.9 0.00 0.00 0.00 34 1014.9
20260502202046 10 0 1.6 12.9 0.00 0.00 0.00 33 1015.0
20260502201549 10 0 0.0 0.0 0.00 0.00 0.00 33 1015.1
20260502201042 10 0 0.0 0.0 0.00 0.00 0.00 33 1015.1
20260502200542 10 0 0.0 6.4 0.00 0.00 0.00 33 1015.2
20260502200052 10 0 0.0 6.4 0.00 0.00 0.00 34 1015.2
20260502195542 10 143 0.0 11.3 0.00 0.00 0.00 33 1015.3
20260502195042 10 0 0.0 11.3 0.00 0.00 0.00 1015.3
20260502194555 10 227 0.0 11.3 0.00 0.00 0.00 33 1015.6
20260502194041 10 212 0.0 0.0 0.00 0.00 0.00 34 1015.6
20260502193541 10 0 0.0 0.0 0.00 0.00 0.00 33 1015.7
20260502193054 10 0 0.0 0.0 0.00 0.00 0.00 36 1015.7
20260502192540 9 0 0.0 0.0 0.00 0.00 0.00 35 1015.8
20260502192040 9 0 0.0 0.0 0.00 0.00 0.00 35 1015.8
20260502191548 9 0 0.0 0.0 0.00 0.00 0.00 35 1016.0
20260502191040 9 0 0.0 0.0 0.00 0.00 0.00 36 1016.0
20260502190540 9 0 0.0 0.0 0.00 0.00 0.00 36 1016.1
20260502190050 9 0 0.0 1.6 0.00 0.00 0.00 35 1016.2
20260502185539 9 0 0.0 1.6 0.00 0.00 0.00 35 1016.2
20260502185041 9 0 0.0 0.0 0.00 0.00 0.00 36 1016.2
20260502184556 9 0 0.0 0.0 0.00 0.00 0.00 35 1016.3
20260502184041 9 0 0.0 0.0 0.00 0.00 0.00 35 1016.3
20260502183540 9 0 0.0 0.0 0.00 0.00 0.00 36 1016.3
20260502183047 8 0 0.0 4.8 0.00 0.00 0.00 37 1016.4
20260502182540 8 0 0.0 14.5 0.00 0.00 0.00 36 1016.4
20260502182041 8 0 1.6 14.5 0.00 0.00 0.00 35 1016.5
20260502181553 9 0 0.0 6.4 0.00 0.00 0.00 34 1016.5
20260502181040 9 0 0.0 16.1 0.00 0.00 0.00 35 1016.5
20260502180540 10 203 0.0 20.9 0.00 0.00 0.00 35 1016.5
20260502164040 7 0 0.0 0.0 0.00 0.00 0.00 36 1017.2
20260502163540 8 0 0.0 0.0 0.00 0.00 0.00 36 1017.2
20260502163053 8 0 0.0 0.0 0.00 0.00 0.00 37 1017.2
20260502162540 8 0 0.0 0.0 0.00 0.00 0.00 37 1017.4
20260502162042 7 0 0.0 0.0 0.00 0.00 0.00 39 1017.4
20260502161550 7 0 0.0 0.0 0.00 0.00 0.00 39 1017.4
20260502161041 7 0 0.0 0.0 0.00 0.00 0.00 41 1017.3
20260502160541 7 0 0.0 0.0 0.00 0.00 0.00 42 1017.4
20260502152041 6 0 0.0 0.0 0.00 0.00 0.00 47 1017.5
20260502151559 6 0 0.0 0.0 0.00 0.00 0.00 49 1017.5
20260502151042 6 0 0.0 0.0 0.00 0.00 0.00 49 1017.6
20260502150543 6 0 0.0 0.0 0.00 0.00 0.00 49 1017.6
20260502130542 3 0 0.0 0.0 0.00 0.00 0.00 36 1017.9
20260502123544 3 0 0.0 0.0 0.00 0.00 0.00 7 1018.1
20260502123102 3 0 0.0 0.0 0.00 0.00 0.00 1 1018.1
20260502122541 3 0 0.0 0.0 0.00 0.00 0.00 4 1018.1
20260502122041 2 0 0.0 0.0 0.00 0.00 0.00 2 1018.1
20260502121547 2 0 0.0 0.0 0.00 0.00 0.00 100 1018.0
20260502121042 2 0 0.0 0.0 0.00 0.00 0.00 100 1018.1
20260502120541 2 0 0.0 0.0 0.00 0.00 0.00 100 1018.1
20260502115541 2 0 0.0 0.0 0.00 0.00 0.00 100 1018.0
20260502115041 1 0 0.0 0.0 0.00 0.00 0.00 100 1018.0
20260502114555 1 0 0.0 0.0 0.00 0.00 0.00 100 1018.0
20260502114041 1 0 0.0 0.0 0.00 0.00 0.00 100 1018.0
20260502113541 0 0 0.0 0.0 0.00 0.00 0.00 100 1017.9
20260502113052 0 0 0.0 0.0 0.00 0.00 0.00 100 1017.8
20260502112540 0 0 0.0 0.0 0.00 0.00 0.00 100 1017.8
20260502112041 0 0 0.0 0.0 0.00 0.00 0.00 100 1017.8
20260502111555 0 0 0.0 0.0 0.00 0.00 0.00 100 1017.8
20260502111044 0 0 0.0 0.0 0.00 0.00 0.00 100 1017.8
20260502110541 0 0 0.0 0.0 0.00 0.00 0.00 100 1017.8
20260502110052 0 0 0.0 0.0 0.00 0.00 0.00 100 1017.7
20260502105543 0 0 0.0 0.0 0.00 0.00 0.00 100 1017.7
20260502105041 0 0 0.0 0.0 0.00 0.00 0.00 100 1017.7
20260502104550 0 0 0.0 0.0 0.00 0.00 0.00 100 1017.7
20260502104041 0 0 0.0 0.0 0.00 0.00 0.00 100 1017.6
20260502103544 0 0 0.0 0.0 0.00 0.00 0.00 100 1017.7
20260502103101 0 0 0.0 0.0 0.00 0.00 0.00 100 1017.6
20260502102541 0 0 0.0 0.0 0.00 0.00 0.00 100 1017.6
20260502102044 0 0 0.0 0.0 0.00 0.00 0.00 100 1017.6
20260502101603 0 0 0.0 0.0 0.00 0.00 0.00 100 1017.5
20260502101041 0 0 0.0 0.0 0.00 0.00 0.00 100 1017.5
20260502100541 0 0 0.0 0.0 0.00 0.00 0.00 100 1017.6
20260502100115 0 0 0.0 0.0 0.00 0.00 0.00 100 1017.5
20260502091047 1 0 0.0 0.0 0.00 0.00 0.00 100 1017.3
20260502090543 1 0 0.0 0.0 0.00 0.00 0.00 100 1017.3
20260502090112 1 0 0.0 0.0 0.00 0.00 0.00 100 1017.3
20260502071037 3 0 0.0 0.0 0.00 0.00 0.00 27 1017.1
20260502070542 3 0 0.0 0.0 0.00 0.00 0.00 29 1017.2
20260502070054 3 0 0.0 0.0 0.00 0.00 0.00 30 1017.2
20260502065543 3 0 0.0 0.0 0.00 0.00 0.00 34 1017.2
20260502065041 3 0 0.0 0.0 0.00 0.00 0.00 34 1017.3
20260502064600 3 0 0.0 0.0 0.00 0.00 0.00 34 1017.3
20260502064042 3 0 0.0 0.0 0.00 0.00 0.00 35 1017.3
20260502063543 3 0 0.0 0.0 0.00 0.00 0.00 34 1017.3
20260502063054 3 0 0.0 0.0 0.00 0.00 0.00 35 1017.3
20260502062540 3 0 0.0 0.0 0.00 0.00 0.00 35 1017.3
20260502062042 3 0 0.0 0.0 0.00 0.00 0.00 36 1017.3
20260502061609 3 0 0.0 0.0 0.00 0.00 0.00 38 1017.4
20260502061041 3 0 0.0 0.0 0.00 0.00 0.00 41 1017.4
20260502060541 3 0 0.0 0.0 0.00 0.00 0.00 40 1017.3
20260502060053 3 0 0.0 0.0 0.00 0.00 0.00 42 1017.4
20260502055538 3 0 0.0 0.0 0.00 0.00 0.00 43 1017.4
20260502055038 3 0 0.0 0.0 0.00 0.00 0.00 43 1017.3
20260502054550 3 0 0.0 0.0 0.00 0.00 0.00 43 1017.4
20260502054037 3 0 0.0 0.0 0.00 0.00 0.00 44 1017.4
20260502053542 3 0 0.0 0.0 0.00 0.00 0.00 45 1017.2
20260502053101 3 0 0.0 0.0 0.00 0.00 0.00 45 1017.3
20260502052541 3 0 0.0 0.0 0.00 0.00 0.00 44 1017.3
20260502052040 3 0 0.0 0.0 0.00 0.00 0.00 45 1017.3
20260502051550 3 0 0.0 0.0 0.00 0.00 0.00 45 1017.2
20260502051041 3 0 0.0 0.0 0.00 0.00 0.00 46 1017.2
20260502050541 3 0 0.0 0.0 0.00 0.00 0.00 48 1017.2
20260502050049 3 0 0.0 0.0 0.00 0.00 0.00 48 1017.2
20260502045544 3 0 0.0 0.0 0.00 0.00 0.00 48 1017.1
20260502045038 3 0 0.0 0.0 0.00 0.00 0.00 48 1017.1
20260502044549 3 0 0.0 0.0 0.00 0.00 0.00 47 1017.0
20260502044038 3 0 0.0 0.0 0.00 0.00 0.00 45 1017.0
20260502043537 3 0 0.0 0.0 0.00 0.00 0.00 47 1017.1
20260502043053 3 0 0.0 0.0 0.00 0.00 0.00 47 1017.0
20260502042539 3 0 0.0 0.0 0.00 0.00 0.00 47 1017.0
20260502042042 4 0 0.0 0.0 0.00 0.00 0.00 47 1017.0
20260502041553 4 0 0.0 0.0 0.00 0.00 0.00 45 1017.0
20260502041041 4 0 0.0 0.0 0.00 0.00 0.00 47 1016.9
20260502040537 4 0 0.0 0.0 0.00 0.00 0.00 47 1016.8
20260502040054 4 0 0.0 0.0 0.00 0.00 0.00 48 1016.9
20260502035541 4 0 0.0 0.0 0.00 0.00 0.00 49 1016.8
20260502035041 4 0 0.0 0.0 0.00 0.00 0.00 49 1016.9
20260502034550 4 0 0.0 0.0 0.00 0.00 0.00 49 1016.8
20260502034042 4 0 0.0 0.0 0.00 0.00 0.00 50 1016.8
20260502033541 4 0 0.0 0.0 0.00 0.00 0.00 50 1016.9
20260502033052 4 0 0.0 0.0 0.00 0.00 0.00 51 1016.9
20260502032541 4 0 0.0 0.0 0.00 0.00 0.00 51 1016.9
20260502032041 4 0 0.0 0.0 0.00 0.00 0.00 51 1016.8
20260502031555 4 0 0.0 0.0 0.00 0.00 0.00 52 1016.8
20260502031042 4 0 0.0 0.0 0.00 0.00 0.00 52 1016.8
20260502030538 4 0 0.0 0.0 0.00 0.00 0.00 52 1016.7
20260502030050 4 0 0.0 0.0 0.00 0.00 0.00 52 1016.7
20260502025541 4 0 0.0 0.0 0.00 0.00 0.00 52 1016.7
20260502025044 4 0 0.0 0.0 0.00 0.00 0.00 53 1016.6
20260502024559 4 0 0.0 0.0 0.00 0.00 0.00 52 1016.6
20260502024038 4 0 0.0 0.0 0.00 0.00 0.00 53 1016.6
20260502023542 5 0 0.0 0.0 0.00 0.00 0.00 53 1016.6
20260502023052 5 0 0.0 0.0 0.00 0.00 0.00 53 1016.6
20260502022540 5 0 0.0 0.0 0.00 0.00 0.00 53 1016.7
20260502022037 5 0 0.0 0.0 0.00 0.00 0.00 53 1016.7
20260502021551 5 0 0.0 0.0 0.00 0.00 0.00 53 1016.7
20260502021038 5 0 0.0 0.0 0.00 0.00 0.00 53 1016.6
20260502020538 5 0 0.0 0.0 0.00 0.00 0.00 53 1016.5
20260502020051 5 0 0.0 11.3 0.00 0.00 0.00 53 1016.5
20260502015544 5 0 0.0 11.3 0.00 0.00 0.00 53 1016.4
20260502015041 5 248 0.0 4.8 0.00 0.00 0.00 53 1016.3
20260502014547 5 0 0.0 1.6 0.00 0.00 0.00 53 1016.3
20260502014041 5 0 0.0 0.0 0.00 0.00 0.00 53 1016.3
20260502013542 5 0 0.0 0.0 0.00 0.00 0.00 53 1016.2
20260502013045 5 0 0.0 0.0 0.00 0.00 0.00 53 1016.1
20260502012541 5 0 0.0 0.0 0.00 0.00 0.00 53 1016.2
20260502012041 5 0 0.0 0.0 0.00 0.00 0.00 53 1016.1
20260502011550 5 0 0.0 0.0 0.00 0.00 0.00 53 1016.0
20260502011041 5 0 0.0 0.0 0.00 0.00 0.00 52 1016.0
20260502010542 5 0 0.0 0.0 0.00 0.00 0.00 52 1015.9
20260502010048 5 0 0.0 0.0 0.00 0.00 0.00 52 1015.9
20260502005541 5 0 0.0 0.0 0.00 0.00 0.00 52 1015.8
20260502005041 5 0 0.0 0.0 0.00 0.00 0.00 53 1015.8
20260502004558 5 0 0.0 1.6 0.00 0.00 0.00 52 1015.8
20260502004039 5 0 0.0 1.6 0.00 0.00 0.00 52 1015.9
20260502003540 5 0 0.0 0.0 0.00 0.00 0.00 53 1015.8
20260502003045 5 0 0.0 1.6 0.00 0.00 0.00 51 1015.7
20260502002542 5 0 0.0 1.6 0.00 0.00 0.00 52 1015.7
20260502002042 5 0 0.0 0.0 0.00 0.00 0.00 52 1015.7
20260502001546 5 0 0.0 3.2 0.00 0.00 0.00 52 1015.6
20260502001040 5 0 0.0 8.0 0.00 0.00 0.00 50 1015.5
20260502000540 5 0 0.0 8.0 0.00 0.00 0.00 51 1015.5
20260502000051 6 0 0.0 1.6 0.00 0.00 0.00 51 1015.4
20260501235541 6 0 0.0 6.4 0.00 0.00 0.00 51 1015.4
20260501235040 6 0 0.0 6.4 0.00 0.00 0.00 52 1015.3
20260501234549 6 0 0.0 0.0 0.00 0.00 0.00 51 1015.4
20260501234042 6 0 0.0 12.9 0.00 0.00 0.00 51 1015.3
20260501233541 6 0 0.0 12.9 0.00 0.00 0.00 52 1015.3
20260501233046 6 236 1.6 9.7 0.00 0.00 0.00 51 1015.4
20260501232543 6 0 0.0 6.4 0.00 0.00 0.00 50 1015.2
20260501232041 6 0 0.0 6.4 0.00 0.00 0.00 51 1015.3
20260501231546 6 0 0.0 0.0 0.00 0.00 0.00 51 1015.2
20260501231041 6 0 0.0 1.6 0.00 0.00 0.00 51 1015.2
20260501230541 6 0 0.0 3.2 0.00 0.00 0.00 51 1015.1
20260501230058 6 0 0.0 3.2 0.00 0.00 0.00 51 1015.1
20260501225542 6 281 0.0 0.0 0.00 0.00 0.00 51 1015.1
20260501225041 6 0 0.0 0.0 0.00 0.00 0.00 51 1015.0
20260501224550 6 0 0.0 0.0 0.00 0.00 0.00 51 1015.0
20260501224040 6 0 0.0 8.0 0.00 0.00 0.00 51 1015.0
20260501223540 6 0 0.0 8.0 0.00 0.00 0.00 50 1015.0
20260501223054 6 0 0.0 11.3 0.00 0.00 0.00 50 1015.0
20260501222541 6 0 0.0 11.3 0.00 0.00 0.00 50 1015.0
20260501222042 6 0 0.0 11.3 0.00 0.00 0.00 49 1015.0
20260501221546 7 0 0.0 0.0 0.00 0.00 0.00 49 1014.9
20260501221043 7 0 0.0 0.0 0.00 0.00 0.00 49 1014.8
20260501220542 7 0 0.0 0.0 0.00 0.00 0.00 47 1014.7
20260501220052 7 0 0.0 0.0 0.00 0.00 0.00 47 1014.6
20260501215543 7 0 0.0 3.2 0.00 0.00 0.00 46 1014.6
20260501215041 7 0 0.0 3.2 0.00 0.00 0.00 47 1014.6
20260501214554 7 0 0.0 3.2 0.00 0.00 0.00 47 1014.6
20260501214041 7 0 0.0 1.6 0.00 0.00 0.00 46 1014.6
20260501213543 7 0 0.0 1.6 0.00 0.00 0.00 48 1014.7
20260501213058 7 0 0.0 1.6 0.00 0.00 0.00 48 1014.6
20260501212542 7 0 0.0 0.0 0.00 0.00 0.00 47 1014.6
20260501212042 7 0 0.0 0.0 0.00 0.00 0.00 46 1014.5
20260501211622 7 0 0.0 0.0 0.00 0.00 0.00 46 1014.5
20260501211041 7 0 0.0 0.0 0.00 0.00 0.00 46 1014.5